Regional Weather Roundup
Issued by NWS

Home | Current Version | Previous Version | Text Only | Print | Product List | Glossary On
Versions: 1 2 3 4 5 6 7 8 9 10 11 12 13 14 15 16 17 18 19 20 21 22 23 24 25 26 27 28 29 30 31 32 33 34 35 36 37 38 39 40 41 42 43 44 45 46 47 48 49 50
000
ASUS43 KDTX 182001
RWRMI
MICHIGAN HOURLY REGIONAL WEATHER ROUNDUP
NATIONAL WEATHER SERVICE DETROIT/PONTIAC MI
300 PM EST SUN FEB 18 2018

NOTE: "FAIR" INDICATES FEW OR NO CLOUDS BELOW 12,000 FEET WITH NO
SIGNIFICANT WEATHER AND/OR OBSTRUCTION TO VISIBILITY.

MIZ047>049-052>055-059>063-066>070-074>076-081>083-182100-
SOUTHEAST LOWER MICHIGAN

CITY           SKY/WX    TMP DP  RH WIND       PRES   REMARKS
ADRIAN         CLOUDY    31  25  78 SW13      30.30F WCI  21
ALMA           FAIR      37  26  65 S12       30.21F WCI  29
ANN ARBOR      CLOUDY    32  25  75 S14       30.29F WCI  22
BAD AXE        FAIR      36  23  61 S10       30.26F WCI  28
CARO           FAIR      38  23  53 S13       30.24F WCI  30
DETROIT CITY   FAIR      35  25  66 SW15      30.31S WCI  25
DETROIT        CLOUDY    36  26  67 S16       30.31S WCI  26
FLINT          FAIR      37  22  54 SW13      30.26S WCI  29
GROSSE ILE     PTSUNNY   35  27  73 SW14      30.31S WCI  26
HILLSDALE      FAIR      32  25  74 S9        30.24F WCI  24
HOWELL         FAIR      37  25  64 S10       30.25S WCI  29

CITY           SKY/WX    TMP DP  RH WIND       PRES   REMARKS
JACKSON        FAIR      34  25  69 S12       30.26F WCI  25
LAMBERTVILLE   FAIR      35  27  74 SW7       30.31F WCI  29
LANSING        FAIR      37  26  64 S15       30.24F WCI  28
LAPEER         FAIR      39  23  53 S6        30.25F WCI  34
MASON          FAIR      37  22  55 S8G16     30.25F WCI  30
MONROE         CLOUDY    34  27  74 SW7       30.31S WCI  28
MT. CLEMENS    PTSUNNY   35  29  80 S17       30.28S WCI  25
PONTIAC        CLOUDY    36  24  62 S10       30.26S WCI  28
PORT HOPE        N/A     35  23  61 SW7       30.24F WCI  29
PORT HURON     FAIR      36  23  60 S10       30.29F WCI  28
TRI CITIES     FAIR      37  24  59 S14       30.23F WCI  28
MIDLAND        FAIR      38  25  58 S10       30.21F WCI  31
TROY           FAIR      38  24  57 SW12      30.30S WCI  31
SAGINAW HB     FAIR      36  27  69 S10       30.24F WCI  28
$$
MIZ043>046-050>051-056>058-064>065-071>073-077>080-182100-
SOUTHWEST LOWER MICHIGAN

CITY           SKY/WX    TMP DP  RH WIND       PRES   REMARKS
BATTLE CREEK   FAIR      34  24  67 S12       30.21F WCI  25
BENTON HARBOR  FAIR      35  24  64 SE9       30.19F WCI  28
BIG RAPIDS     FAIR      37  19  47 S12       30.15F WCI  29
COLDWATER      FAIR      33  25  72 SE7       30.24F WCI  27
FREMONT        FAIR      36  15  43 S12G18    30.16F WCI  27
HOLLAND        FAIR      38  24  57 S13       30.19F WCI  30
GRAND RAPIDS   PTSUNNY   37  24  59 S13       30.19F WCI  29
IONIA          FAIR      37  24  57 S12       30.20F WCI  30
KALAMAZOO      FAIR      34  23  64 S13       30.21F WCI  25
LUDINGTON      FAIR      33  26  73 S10       30.14F WCI  25
MARSHALL       FAIR      33  24  68 SE9       30.23F WCI  26
MOUNT PLEASANT FAIR      38  23  55 S12       30.19F WCI  30
MUSKEGON       PTSUNNY   34  25  69 S10       30.18F WCI  26
SOUTH HAVEN    FAIR      37  24  59 S12G20    30.19F WCI  29
$$
MIZ016>042-182100-
NORTHERN LOWER MICHIGAN

CITY           SKY/WX    TMP DP  RH WIND       PRES   REMARKS
ALPENA         FAIR      37  19  48 SW8       30.18F WCI  31
BEAVER ISLAND  CLOUDY    29  21  73 S6        30.10S WCI  23
BELLAIRE       PTSUNNY   35  21  57 S10G16    30.13F WCI  27
CADILLAC       FAIR      34  21  58 S13       30.11F WCI  25
CHARLEVOIX     PTSUNNY   32  20  62 S6        30.14F WCI  26
FRANKFORT      FAIR      35  25  66 SW8       30.12F WCI  29
GAYLORD        CLOUDY    31  20  63 SE9       30.09F WCI  23
GRAYLING       FAIR      34  19  55 S10       30.11F WCI  26
HARBOR SPRINGS CLOUDY    31  20  64 CALM      30.11F
HOUGHTON LAKE  FAIR      35  20  54 S12       30.14F WCI  27
MANISTEE       FAIR      36  22  56 S13G22    30.12F WCI  27
OSCODA         CLOUDY    34  20  56 SW9G18    30.22F WCI  27
PELLSTON       CLOUDY    31  20  63 SE7       30.11F WCI  24
ROGERS CITY    CLOUDY    36  18  49 S7        30.17F WCI  30
TRAVERSE CITY  CLOUDY    39  20  46 S8        30.11F WCI  33
$$
MIZ007>008-015-182100-
EASTERN UPPER MICHIGAN

CITY           SKY/WX    TMP DP  RH WIND       PRES   REMARKS
KINROSS        CLOUDY    28  17  63 S10       30.12F WCI  19
MACKINAC ISLAN CLOUDY    28  18  68 CALM      30.12F
NEWBERRY       LGT SNOW  22  21  97 SE8       30.08F VSB 1   WCI  12
S. S. MARIE    CLOUDY    30  16  56 S8        30.12F WCI  22
MUNISING         N/A     24  20  84 S13G21    30.03F WCI  12
$$
MIZ004>006-011>014-085-182100-
CENTRAL UPPER MICHIGAN

CITY           SKY/WX    TMP DP  RH WIND       PRES   REMARKS
MANISTIQUE     CLOUDY    28  23  82 S14       30.08F WCI  16
ESCANABA       PTSUNNY   26  21  81 SE8       30.05F WCI  18
SAWYER-GWINN   CLOUDY    21  16  79 S18       29.98F WCI   6
$$
MIZ001>003-009>011-084-182100-
WESTERN UPPER MICHIGAN

CITY           SKY/WX    TMP DP  RH WIND       PRES   REMARKS
IRON MOUNTAIN  PTSUNNY   25  14  63 SE13      29.92F WCI  14
HOUGHTON       CLOUDY    21  15  78 E18G24    29.86F WCI   6
COPPER HARBOR    N/A     22  17  81 S8G18     29.95F WCI  12
IRONWOOD       FLURRIES  28  15  58 SE21G28   29.64F WCI  15
$$

ABBREVIATIONS USED IN REMARKS
   TC - TEMPERATURE IN CELSIUS
  WCI - WIND CHILL INDEX
   HX - HEAT INDEX
  VSB - VISIBILITY





USA.gov is the U.S. government's official web portal to all federal, state and local government web resources and services.